DECAYED

STARLINK-2374, 47913 (Decayed)

Orbit data source: Space-Track

STARLINK-2374, 47913 was a payload satellite owned by SpaceX/Seattle (US) in LEO that was launched on Sun, 14 Mar 2021 UTC via an FALCON 9 launch vehicle from the Air Force Eastern Test Range (AFETR). Payload-class satellites include a variety of spacecraft equipped with specific instruments for various scientific and technological missions. These include communications satellites like Starlink; space stations such as the ISS; scientific satellites like the Hubble; Earth observation satellites from companies like Planet Labs, Umbra, and HawkEye 360; GPS; miniature CubeSats for education and research; and military/defense satellites.

Not visible in the next 10 days
Identifier
47913, 2021-021BF
Orbit
Decayed
Country
Flag of USUS
Related business
Manufacturer
SpaceX/Seattle
Mission
Decayed Commercial Communications
Bus & Motor
STARLINK, Unknown motor
Mass
260 kg wet, ~248 kg dry
Launch date (UTC)
2021-03-14 (5 years ago)
Launch vehicle
FALCON 9
Launch site
Air Force Eastern Test Range (AFETR)
Object type
Payload
Rocket body
Debris
Shape & HBR
Box + 1 Pan, 10.1 m
Radar Cross Section
13.562 m², Large (>1 m²)

Expand to show TLE details & history
Last TLE update: 1 year ago

TLE from 1 year ago
0 STARLINK-2374
1 47913U 21021BF  25026.64895398  .15666506  12322-4  32714-3 0  9996
2 47913  53.0334 281.1571 0012523 198.0201 253.9283 16.45812783214614
Epoch: 2025-01-26T15:34Z
TLE epoch observation values (Epoch: 2025-01-26T15:34:29.623Z)
Latitude
53.15433°
Longitude
14.36574°
Altitude
159.125 km
Speed
7.816 km/s
True Right ascension
00h 56m 40s
True Declination
52° 58' 26"
Sunlit
Object was in daylight at epoch
Visualization orbit readout
Latitude
Unknown
Longitude
Unknown
Altitude
Unknown
Speed
Unknown
Apparent Right ascension
Unknown
Apparent Declination
Unknown
Sunlit
N/A
Visualization observer readout
Local Sidereal Time
21:33:05
Azimuth
Unknown
Elevation
Unknown
Doppler factor
Unknown
Orbital elements
Apogee altitude
158.852 km
Perigee altitude
142.499 km
Semi-major axis
6,528.812 km
Eccentricity
0.00125
Inclination
53.0334°
RAAN
281.1571°
Arg. of periapsis
198.0201°
True anomaly
253.79047°
Mean anomaly
253.9283°
Eccentric anomaly
253.85938°
Mean motion
4.11426 °/min
Orbital period
87.5 mins
BSTAR
0.00032714
Loading maneuver chart data...
Computing Atmospheric mass density...

Documentation

Showing up to 5 results
|